{"data":{"norad_id":41394,"epoch":"2026-09-20T04:48:21.803040Z","epoch_age_seconds":70787,"freshness":"FRESH","line1":"1 41394U 16020A   26263.20025235  .00001602  00000+0  10753-3 0  9995","line2":"2 41394  97.9753 282.2661 0023164 344.5593  15.4925 15.08193025574735","mean_motion":15.08193025,"eccentricity":0.0023164,"inclination_deg":97.9753,"raan_deg":282.2661,"arg_perigee_deg":344.5593,"mean_anomaly_deg":15.4925,"bstar":0.00010753,"rev_number":57473,"period_min":95.478494869713,"perigee_km":525.69247905471,"apogee_km":557.75080016028,"semimajor_km":6919.8586396075,"source":"CELESTRAK","updated_at":"2026-09-20T09:00:14.125057Z"}}